Huron, SD

7:14 AM CST on December 14, 2019 (GMT -0600)
Huron Regional

Weather History for KHON - July, 2019

Change the Weather History Date:

Friday, July 19, 2019

  Actual Average Record
Temperature  
Mean Temperature 81 °F 74 °F  
Max Temperature 88 °F 87 °F 106 °F (1934)
Min Temperature 74 °F 62 °F 47 °F (1971)
Degree Days  
Heating Degree Days 0 0  
Month to date heating degree days 0 0  
Since 1 June heating degree days 28 51  
Since 1 July heating degree days 0 0  
Cooling Degree Days 16 9  
Month to date cooling degree days 218 165  
Year to date cooling degree days 390 331  
Since 1 June cooling degree days 377 298  
Growing Degree Days 30 (Base 50)    
Moisture  
Dew Point 75 °F    
Average Humidity 81    
Maximum Humidity 94    
Minimum Humidity 68    
Precipitation  
Precipitation 0.00 in 0.09 in 1.73 in (1972)
Month to date precipitation 4.54 1.68  
Year to date precipitation 21.21 13.59  
Snow  
Snow 0.00 in 0.00 in 0.00 in ()
Month to date snowfall 0.0 0.0  
Since 1 June snowfall 0.0 0.0  
Since 1 July snowfall 0.0 0.0  
Snow Depth 0.00 in    
Sea Level Pressure  
Sea Level Pressure 29.63 in    
Wind  
Wind Speed 10 mph (NNW)    
Max Wind Speed 17 mph    
Max Gust Speed 26 mph    
Visibility 10 miles    
Events      
T = Trace of Precipitation, MM = Missing Value Source: NWS Daily Summary

Daily Weather History Graph

Daily Weather History Graph

Search for Another Location

Airport or City:

Astronomy

Jul. 19, 2019 Rise Set
Actual Time 6:06 AM CDT 9:11 PM CDT
Civil Twilight 5:31 AM CDT 9:46 PM CDT
Nautical Twilight 4:46 AM CDT 10:31 PM CDT
Astronomical Twilight 3:52 AM CDT 11:24 PM CDT
Moon 11:05 PM CDT (7/19) 8:37 AM CDT (7/19)
Length of Visible Light 16h 15m
Length of Day
15h 05m
Waning Gibbous, 93% of the Moon is Illuminated
Jul 19
Waning Gibbous
Jul 24
Last Quarter
Jul 31
New
Aug 7
First Quarter
Aug 15
Full

Hourly Weather History & Observations

Time (CDT) Temp. Heat Index Dew Point Humidity Pressure Visibility Wind Dir Wind Speed Gust Speed Precip Events Conditions
12:55 AM 77.0 °F - 73.9 °F 90% 29.62 in 10.0 mi ENE 5.8 mph - N/A   Clear
1:55 AM 75.9 °F - 73.0 °F 91% 29.63 in 10.0 mi SE 4.6 mph - N/A   Clear
2:55 AM 75.9 °F - 73.0 °F 91% 29.63 in 10.0 mi SSE 8.1 mph - N/A   Clear
3:55 AM 75.0 °F - 73.0 °F 94% 29.60 in 10.0 mi East 9.2 mph - N/A   Clear
4:55 AM 75.0 °F - 72.0 °F 90% 29.58 in 10.0 mi SE 9.2 mph - N/A   Clear
5:55 AM 75.9 °F - 73.0 °F 91% 29.55 in 9.0 mi SE 12.7 mph - N/A   Clear
6:55 AM 77.0 °F - 73.9 °F 90% 29.53 in 8.0 mi SSE 15.0 mph 24.2 mph N/A   Clear
7:55 AM 80.1 °F 85.1 °F 75.0 °F 85% 29.52 in 10.0 mi SSE 15.0 mph 25.3 mph N/A   Clear
8:55 AM 81.0 °F 87.3 °F 75.9 °F 85% 29.54 in 10.0 mi South 12.7 mph 20.7 mph N/A   Clear
9:55 AM 82.9 °F 91.8 °F 77.0 °F 82% 29.56 in 9.0 mi South 9.2 mph - N/A   Partly Cloudy
10:35 AM 84.0 °F 92.6 °F 75.9 °F 76% 29.60 in 10.0 mi WNW 9.2 mph - N/A   Mostly Cloudy
10:55 AM 86.0 °F 96.9 °F 77.0 °F 74% 29.57 in 10.0 mi NW 9.2 mph - N/A   Scattered Clouds
11:12 AM 82.9 °F 91.8 °F 77.0 °F 82% 29.61 in 9.0 mi NNW 11.5 mph - N/A   Mostly Cloudy
11:20 AM 84.9 °F 96.6 °F 78.1 °F 80% 29.61 in 10.0 mi North 12.7 mph - N/A   Scattered Clouds
11:55 AM 86.0 °F 96.9 °F 77.0 °F 74% 29.59 in 10.0 mi NW 10.4 mph - N/A   Scattered Clouds
12:55 PM 86.0 °F 96.0 °F 75.9 °F 72% 29.60 in 10.0 mi NW 8.1 mph - N/A   Partly Cloudy
1:37 PM 87.1 °F 98.8 °F 77.0 °F 72% 29.64 in 10.0 mi NW 11.5 mph - N/A   Mostly Cloudy
1:46 PM 87.1 °F 98.8 °F 77.0 °F 72% 29.65 in 10.0 mi WNW 12.7 mph - N/A   Scattered Clouds
1:55 PM 87.1 °F 97.3 °F 75.9 °F 69% 29.61 in 10.0 mi NW 11.5 mph - N/A   Mostly Cloudy
2:05 PM 87.1 °F 98.8 °F 77.0 °F 72% 29.65 in 10.0 mi WNW 13.8 mph - N/A   Scattered Clouds
2:31 PM 88.0 °F 100.2 °F 77.0 °F 70% 29.65 in 10.0 mi WNW 11.5 mph - N/A   Mostly Cloudy
2:38 PM 88.0 °F 100.2 °F 77.0 °F 70% 29.66 in 10.0 mi WNW 12.7 mph - N/A   Scattered Clouds
2:47 PM 88.0 °F 100.2 °F 77.0 °F 70% 29.66 in 10.0 mi NW 12.7 mph - N/A   Mostly Cloudy
2:55 PM 88.0 °F 100.2 °F 77.0 °F 70% 29.63 in 10.0 mi NNW 12.7 mph - N/A   Mostly Cloudy
3:02 PM 87.1 °F 97.3 °F 75.9 °F 69% 29.66 in 10.0 mi NW 13.8 mph - N/A   Scattered Clouds
3:55 PM 87.1 °F 97.3 °F 75.9 °F 69% 29.64 in 10.0 mi NNW 12.7 mph - N/A   Mostly Cloudy
4:22 PM 86.0 °F 95.1 °F 75.0 °F 70% 29.68 in 10.0 mi NNW 11.5 mph - N/A   Scattered Clouds
4:55 PM 87.1 °F 97.3 °F 75.9 °F 69% 29.65 in 10.0 mi North 12.7 mph - N/A   Mostly Cloudy
5:12 PM 86.0 °F 95.1 °F 75.0 °F 70% 29.69 in 10.0 mi North 12.7 mph - N/A   Scattered Clouds
5:55 PM 86.0 °F 95.1 °F 75.0 °F 70% 29.67 in 10.0 mi NNW 10.4 mph - N/A   Scattered Clouds
6:55 PM 84.9 °F 93.3 °F 75.0 °F 72% 29.68 in 10.0 mi NNW 9.2 mph - N/A   Partly Cloudy
7:55 PM 82.9 °F 90.2 °F 75.0 °F 77% 29.69 in 10.0 mi North 9.2 mph - N/A   Mostly Cloudy
8:55 PM 80.1 °F 84.2 °F 73.0 °F 79% 29.69 in 10.0 mi North 10.4 mph - N/A   Clear
9:55 PM 79.0 °F - 72.0 °F 79% 29.72 in 10.0 mi North - - N/A   Clear
10:55 PM 77.0 °F - 72.0 °F 84% 29.74 in 10.0 mi NE 5.8 mph - N/A   Mostly Cloudy
11:55 PM 73.9 °F - 71.1 °F 91% 29.73 in 10.0 mi ENE 4.6 mph - N/A   Clear